Regional Weather Roundup
Issued by NWS

Home | Current Version | Previous Version | Text Only | Print | Product List | Glossary Off
Versions: 1 2 3 4 5 6 7 8 9 10 11 12 13 14 15 16 17 18 19 20 21 22 23 24 25 26 27 28 29 30 31 32 33 34 35 36 37 38 39 40 41

000
ASUS45 KBOU 261007
RWRCO

WEATHER ROUNDUP FOR COLORADO
NATIONAL WEATHER SERVICE DENVER/BOULDER CO
300 AM MST FRI DEC 26 2014

NOTE: "FAIR" INDICATES FEW OR NO CLOUDS BELOW 12000 FEET WITH NO
SIGNIFICANT WEATHER AND/OR OBSTRUCTIONS TO VISIBILITY.

COZ001>005-013-030-031-261100-
...NORTHWEST COLORADO...

CITY           SKY/WX    TMP DP  RH WIND       PRES   REMARKS
CRAIG          CLOUDY    19  15  84 W8        29.72R WCI   9
HAYDEN         CLOUDY    19  16  86 W8        29.69R WCI   9
MEEKER         LGT SNOW  21  16  81 W3        29.70R
MOUNT WERNER   NOT AVBL
STEAMBOAT SPGS NOT AVBL
WALDEN         NOT AVBL
$$

COZ006>008-011-261100-
...WEST CENTRAL VALLEYS...

CITY           SKY/WX    TMP DP  RH WIND       PRES   REMARKS
GRAND JUNCTION LGT SNOW  25  24  96 N3        29.73R FOG
MONTROSE       CLOUDY    26  23  88 CALM      29.73R
EAGLE          CLOUDY    21  21 100 CALM      29.69R
RIFLE          CLOUDY    25  22  88 SW5       29.72R WCI  19
DELTA          LGT SNOW  28  25  91 CALM      29.73S
NUCLA          CLOUDY    23  21  93 CALM      29.75R
$$

COZ017>023-064>068-261100-
...SOUTHWEST COLORADO...

CITY           SKY/WX    TMP DP  RH WIND       PRES   REMARKS
DURANGO        LGT SNOW  21  20  96 CALM      29.67S FOG
CORTEZ         CLOUDY    19  16  88 CALM      29.71R
PAGOSA SPRINGS LGT SNOW  20  19  97 CALM      29.67R
TELLURIDE      CLOUDY    14   6  71 E5        29.64R WCI   6
WOLF CREEK PAS NOT AVBL
$$

COZ009-010-012-014-032>034-037-058>063-261100-
...CENTRAL COLORADO...

CITY           SKY/WX    TMP DP  RH WIND       PRES   REMARKS
ASPEN          LGT SNOW  20  18  92 NW5       29.62R FOG     WCI  13
BUENA VISTA    LGT SNOW  16  13  86 E3        29.70R
COPPER MTN     NOT AVBL
BERTHOUD PASS  NOT AVBL
COTTONWOOD PAS NOT AVBL
GUNNISON       CLOUDY    10   9  92 CALM      29.68R
KREMMLING      NOT AVBL
LEADVILLE      CLOUDY     8   5  87 CALM      29.58R
SALIDA         CLOUDY    21  19  92 E9        29.76R VSB 3/4 WCI  11
SUNLIGHT       NOT AVBL
WILKERSON PASS NOT AVBL
$$

COZ069>075-261100-
...SAN LUIS VALLEY/SANGRE DE CRISTO MOUNTAINS...

CITY           SKY/WX    TMP DP  RH WIND       PRES   REMARKS
ALAMOSA        PTCLDY    15  11  83 S9        29.64F WCI   3
LA VETA PASS   NOT AVBL
SAGUACHE       NOT AVBL
$$

COZ035-036-038>040-261100-
...NORTHERN COLORADO FRONT RANGE...

CITY           SKY/WX    TMP DP  RH WIND       PRES   REMARKS
DENVER INTL AP LGT SNOW  18  15  88 N8        29.87S WCI   8
DMNS CITY PARK   N/A     18  17  93 NE3       29.89S
AURORA         FLURRIES  17  17  99 N8        29.87S WCI   6
FRONT RANGE AP NOT AVBL
ERIE MUNI ARPT NOT AVBL
BOULDER MUN AP NOT AVBL
CENTENNIAL     LGT SNOW  16  15  96 N9        29.85S VSB 1   WCI   4
BROOMFIELD     NOT AVBL
FORT COLLINS   CLOUDY    19  14  79 N7        29.92R WCI  10
LONGMONT       NOT AVBL
$$

COZ041-046-047-076>085-087-088-261100-
...PIKES PEAK/PALMER DIVIDE AND SOUTHERN FOOTHILLS...

CITY           SKY/WX    TMP DP  RH WIND       PRES   REMARKS
COLO. SPRINGS  FLURRIES  19  11  70 N20G25    29.79R WCI   3
A. F. ACADEMY  MIX PCPN  15  10  78 NW15G23   29.78S WCI   0
ELLICOTT       NOT AVBL
FALCON         NOT AVBL
FORT CARSON    CLOUDY    21  12  68 N21G29    29.77R WCI   5
LIMON          CLOUDY    17  16  95 N20       29.83S WCI   1
MONUMENT HILL  NOT AVBL
TRINIDAD       LGT SNOW  23  20  88 N10       29.79S FOG     WCI  12
$$

COZ042>045-048>051-090-091-261100-
...NORTHEAST COLORADO...

CITY           SKY/WX    TMP DP  RH WIND       PRES   REMARKS
GREELEY ARPT   CLOUDY    19  12  73 N5        29.92R WCI  13
AKRON          CLOUDY    19  18  95 N15       29.87S WCI   5
BURLINGTON     CLOUDY    24  21  88 N16       29.85R WCI  11
WRAY           CLOUDY    25  23  93 N13       29.93R WCI  13
STERLING       NOT AVBL
HOLYOKE        NOT AVBL
FORT MORGAN    CLOUDY    20  17  86 N12       29.91S WCI   8
$$

COZ086-089-092>099-261100-
...SOUTHEAST COLORADO...

CITY           SKY/WX    TMP DP  RH WIND       PRES   REMARKS
PUEBLO         CLOUDY    26  18  71 E12       29.85R WCI  16
LA JUNTA       CLOUDY    26  22  84 N8        29.87R WCI  18
LAMAR          CLOUDY    28  23  81 NE13      29.84R WCI  17
SPRINGFIELD      N/A     26  24  92 N18       29.81R WCI  13
$$


USA.gov is the U.S. government's official web portal to all federal, state and local government web resources and services.